Погода в Бирзаи

Поиск расширенной информации на нашем сайте:

Полезная информация:

Новости сайта



02.01.2020
Опубликован Долгосрочный прогноз погоды по городам России и ближнего зарубежья на январь 2020 года.
Карты: Прогноз на январь и февраль 2020 года, Сравнение прогнозируемой аномалии приземной температуры воздуха на январь 2020 года по разным моделям.




Погода в Бирзаи - сегодня

Время (UTC), дата Ветер
(°,м/с) 
Видим.   Явления Облачность Т
(°С)
Тd
(°С)
f(%) Тe
(°С)
Pmin
(гПа)
dP
(гПа)
Po
(мм)
O2
(г/м3)
Тmin Tmax R s Состояние
почвы
06 01.06.20 040 (СВ) 3-7{07}  20000 м    3/0 верхняя 
[Ci fib]
+13.1 +1 44 +13  1022.8  0.1  761  293  +6.8        сухая 
09 01.06.20 040 (СВ) 3-7{10}  20000 м    6/0 средняя, верхняя 
[Ac cast|Ci sp]
+16.1 +0.9 36 +16  1021.6  -1.1  761  289           
12 01.06.20 020 (С) 3-6{10}  19000 м    8/0 средняя 
[Ac As]
+18 +2.7 36 +19  1019.5  -2  759  287           
15 01.06.20 010 (С) 2-4{09}  20000 м    9/0 средняя 
[Ac As]
+15.6 +4 46 +16  1018.7  -0.9  758  289           
18 01.06.20 070 (В) 4-6{07}  20000 м    3/0 средняя 
[Ac lent]
+13.1 +1.9 46 +13  1018.9  0.1  759  291    +18.7       
21 01.06.20 030 (СВ) 1-3{06}  20000 м    ясно 
+8.3 +1.9 64 +9  1019.8  0.8  759  297           
00 02.06.20 020 (С) 1-3{04}  20000 м    ясно 
+5.7 +1.9 77 +7  1018.8  -1  758  299           
03 02.06.20 040 (СВ) 2-5{05}  20000 м    ясно 
+6.7 +2.3 73 +7  1017.8  -1  758  298           
06 02.06.20 030 (СВ) 2-4{06}  19000 м    ясно 
+13 +4.4 56 +13  1017.1  -0.5  757  291  +5.1        сухая 
09 02.06.20 050 (СВ) 4-8{09}  20000 м    6/6 1500 м 
[Cu med, cong]
+16.9 +3.1 40 +17  1015.5  -1.5  756  286           
12 02.06.20 040 (СВ) 4-8{10}  20000 м    5/3 1500 м средняя 
[Cu med, cong|Ac trans]
+18.4 +2.2 34 +19  1013.8  -1.7  755  285           
15 02.06.20 060 (СВ) 4-7{10}  19000 м    4/0 средняя 
[Ac trans]
+17.4 +1.4 34 +18  1012.3  -1.5  754  285           
18 02.06.20 060 (СВ) 3-6{10}  20000 м    6/0 средняя 
[Ac trans]
+15.9 +1.5 38 +16  1011.6  -0.7  753  287    +19       
21 02.06.20 090 (В) 2-4{06}  20000 м    8/0 средняя 
[Ac trans]
+11.4 +2.9 56 +12  1012  0.3  753  291           
00 03.06.20 010 (С) 1-2{04}  20000 м  слаб. дождь  10/0 средняя 
[As op]
+10.3 +5.5 72 +11  1010.9  -1.2  753  291      0.0     
03 03.06.20 060 (СВ) 2-5{05}  20000 м  {дождь}  10/0 средняя 
[Ac As]
+9.8 +5.5 75 +10  1010.1  -0.8  752  292           
06 03.06.20 070 (В) 3-4{06}  20000 м  {дождь}  9/9 900 м 
[Sc]
+11.5 +7.1 74 +11  1009.7  -0.3  752  289  +9.4    0.0    сухая 
09 03.06.20 080 (В) 4-6{07}  20000 м    10/10 700 м 
[Sc]
+12.7 +8 73 +12  1009.8  0.1  752  288           
12 03.06.20 070 (В) 3-5{07}  20000 м    10/10 1170 м 
[Sc]
+13.6 +8.2 70 +14  1009.1  -0.7  751  287           
15 03.06.20 090 (В) 2-5{06}  20000 м    9/9 1500 м 
[Sc]
+14.1 +8.6 69 +15  1008.1  -0.9  751  286           
18 03.06.20 070 (В) 2-4{07}  20000 м    3/3 1000 м 
[Sc diur, vesp]
+14.4 +8.3 67 +15  1007.2  -0.9  750  286    +15.5       
21 03.06.20 060 (СВ) 2-4{04}  20000 м    1/0 средняя 
[Ac lent]
+10.8 +8.3 85 +11  1006.9  -0.4  750  289           
00 04.06.20 070 (В) 1-3{05}  20000 м    3/0 средняя 
[Ac trans]
+9.5 +8.1 91 +11  1005.2  -1.7  748  290           
03 04.06.20 030 (СВ) 1-3{03}  16000 м    4/0 средняя, верхняя 
[Ac trans|Ci]
+8.3 +7.4 94 +9  1004.4  -0.9  748  291           
06 04.06.20 080 (В) 1-3{05}  20000 м    9/0 средняя 
[Ac und]
+12.2 +9.7 85 +14  1003.7  -0.6  747  286  +7.9        сухая 
Время (UTC), дата Ветер
(°,м/с) 
Видим.   Явления Облачность Т
(°С)
Тd
(°С)
f(%) Тe
(°С)
Pmin
(гПа)
dP
(гПа)
Po
(мм)
O2
(г/м3)
Тmin Tmax R s Состояние
почвы

Для получения пояснительной информации подведите курсор к названию столбца.

ПОГОДА в Бирзаи - архив

Всё, что Вы хотите узнать о погоде в Бирзаи - удобно и подробно!

Выберите нужную дату (начиная с 1 января 2019* года) и нажмите кнопку "Найти".
Будут отображены архивные сводки погоды по пункту Бирзаи, начиная с указанной даты.


Отображать данные в формате CSV (для использования в таблицах Excel)


Внимание! Наш архив погоды предназначен исключительно для личного некоммерческого использования в познавательных целях. Если Вам необходимы официальные справки о состоянии погоды (для производственных, юридических, коммерческих и т.п. целей), обращайтесь в органы Росгидромета.

*Примечание: данная дата относится к архиву по метеостанциям СССР (Россия, СНГ, Балтия).
Архив по метеостанциям Зарубежной Европы и Азии (кроме Китая) хранится 10 дней, по другим регионам земного шара (Китай, Африка, Америка, Австралия, Океания) - 1 день.

Бирзаи - район местоположения метеостанции


Название, широта, долгота, высота метеостанции:
Бирзаи 56.2°ш. 24.8°д. 62 м над ур. моря [Литва]

Дополнительная информация

В oтличие oт бoльшинства пoгoдных сайтoв мы публикуем пoдрoбную метеoинфoрмацию в детальнoм прoфессиoнальнoм фoрмате.

Характеристики температуры и влажнoсти вoздуха измеряются на высoте 2 м в тени вдали oт зданий и деревьев.
Скoрoсть ветра измеряется на высoте 10 м (на урoвне рoста челoвека скoрoсть ветра ниже в 1.5-2 раза). Если метеoстанция нахoдится в гoрoде или в лесу, тo скoрoсть ветра занижена на 2-4 м/с пo сравнению с oткрытым местoм. Скoрoсть ветра над акватoриями крупных рек и oзёр, а также на вершинах хoлмoв на 2-5 м/с выше, чем в oбычных услoвиях.
Атмoсфернoе давление в разных тoчках местнoсти мoжет значительнo oтличаться oт давления на метеoстанции, в зависимoсти oт услoвий рельефа (при пoдъёме на 10 м давление пoнижается примернo на 1 мм рт.ст.).